星链-2542 (STARLINK-2542 )

导读 | 星芒AI

STARLINK-2542 是 SpaceX Starlink 项目中的一颗低轨通信卫星,属于第二代 Starlink 卫星(Gen2)。它于2024年发射,旨在为全球用户提供高速、低延迟的互联网服务。该卫星采用先进设计,配备更高性能的通信设备和激光链路,以提升网络效率和覆盖范围。作为 Starlink 卫星群的一部分,STARLINK-2542 有助于构建更稳定、更广泛的全球宽带网络,特别是在偏远和网络基础设施薄弱的地区。

基本信息
目录编号:
48292
目录名称:
STARLINK-2542
国际标识:
2021-036S
轨道中心:
EARTH
卫星名称:
星链-2542
卫星全名:
星链-2542 (STARLINK-2542 )
卫星状态:
在轨 (已飞行1694 天)
发射日期:
2021-04-29 UTC
国别 :
美国 (US)
星等 :
--
轨道信息
数据来源 国际轨道数据
星历时间: 2025-12-17T20:12:55+0800
18小时前
查看轨道信息
半长轴: 6925.338km
偏心率: 0.0001096
轨道倾角: 53.054°
近地点辐角 81.281°
升交点赤经 90.707°
平近点角 278.830°
近地点: 546.443km
远地点: 547.963km
周期: 95.592分钟
每日圈数: 15.064036
详细信息
固有亮度:
5
最大亮度:
2.5
卫星平台:
Starlink V1.0
覆盖范围:
全球
运营商:
太空探索技术公司
运营商所在国:
美国
制造商(研发单位):
太空探索技术公司
制造商所在国:
美国
使用方式:
暂无
卫星简介
星链(Starlink)计划是由太空探索技术公司(SpaceX)提出的一个巨型低轨卫星互联网星座项目,计划在2019年至2024年间在太空搭建由约1.2万颗卫星组成的“星链”网络,其中1584颗将部署在地球上空550千米处的近地轨道,并从2020年开始工作。该卫星仍在工作。
2D轨道图
3D轨道图
轨道高度分析图
轨道倾角分析图
轨道综合分析图
查看轨道综合分析图